Weather History for KARA - March, 2012

Change the Weather History Date:

Tuesday, March 20, 2012

  Actual Average Record
Temperature  
Mean Temperature 75 °F 63 °F  
Max Temperature 81 °F 74 °F 84 °F (2015)
Min Temperature 69 °F 52 °F 27 °F (1965)
Degree Days  
Heating Degree Days 0 4  
Month to date heating degree days 36 109  
Since 1 July heating degree days 936 1325  
Cooling Degree Days 10 2  
Month to date cooling degree days 125 25  
Year to date cooling degree days 220 56  
Growing Degree Days 25 (Base 50)    
Moisture  
Dew Point 66 °F    
Average Humidity 76    
Maximum Humidity 90    
Minimum Humidity 62    
Precipitation  
Precipitation 0.00 in 0.10 in 1.82 in (1985)
Month to date precipitation 1.65 2.48  
Year to date precipitation 12.79 11.89  
Sea Level Pressure  
Sea Level Pressure 29.83 in    
Wind  
Wind Speed 22 mph (SE)    
Max Wind Speed 39 mph    
Max Gust Speed 48 mph    
Visibility 10 miles    
Events      
T = Trace of Precipitation, MM = Missing Value Source: NWS Daily Summary

Daily Weather History Graph

Daily Weather History Graph

Search for Another Location

Airport or City:

Trip Planner

Search our weather history database for the weather conditions in past years. The results will help you decide how hot, cold, wet, or windy it might be!

Date:

Astronomy

Mar. 20, 2012 Rise Set
Actual Time 7:10 AM CDT 7:19 PM CDT
Civil Twilight 6:46 AM CDT 7:43 PM CDT
Nautical Twilight 6:19 AM CDT 8:11 PM CDT
Astronomical Twilight 5:50 AM CDT 8:39 PM CDT
Moon 5:47 AM CDT (3/20) 5:51 PM CDT (3/20)
Length of Visible Light 12h 56m
Length of Day
12h 08m
Waning Crescent, 4% of the Moon is Illuminated
Mar 20
Waning Crescent
Mar 22
New
Mar 30
First Quarter
Apr 6
Full
Apr 13
Last Quarter

Hourly Weather History & Observations

Time (CDT) Temp. Heat Index Dew Point Humidity Pressure Visibility Wind Dir Wind Speed Gust Speed Precip Events Conditions
12:53 AM 70.0 °F - 64.9 °F 84% 29.89 in 10.0 mi SE 11.5 mph - N/A   Scattered Clouds
1:53 AM 70.0 °F - 66.0 °F 87% 29.87 in 10.0 mi SE 11.5 mph - N/A   Partly Cloudy
2:53 AM 70.0 °F - 64.9 °F 84% 29.85 in 10.0 mi SE 11.5 mph - N/A   Partly Cloudy
3:53 AM 70.0 °F - 66.0 °F 87% 29.83 in 10.0 mi SE 12.7 mph - N/A   Mostly Cloudy
4:32 AM 71.6 °F - 66.2 °F 83% 29.83 in 10.0 mi SE 13.8 mph - N/A   Mostly Cloudy
4:53 AM 70.0 °F - 66.0 °F 87% 29.82 in 10.0 mi SE 12.7 mph - N/A   Scattered Clouds
5:53 AM 71.1 °F - 66.0 °F 84% 29.83 in 10.0 mi SE 15.0 mph - N/A   Mostly Cloudy
6:49 AM 71.6 °F - 66.2 °F 83% 29.83 in 10.0 mi SE 13.8 mph - N/A   Mostly Cloudy
6:53 AM 71.1 °F - 66.0 °F 84% 29.83 in 10.0 mi SE 13.8 mph 20.7 mph N/A   Mostly Cloudy
7:13 AM 71.6 °F - 66.2 °F 83% 29.84 in 10.0 mi SE 13.8 mph - N/A   Scattered Clouds
7:22 AM 71.6 °F - 66.2 °F 83% 29.83 in 9.0 mi SE 15.0 mph - N/A   Mostly Cloudy
7:53 AM 72.0 °F - 66.9 °F 84% 29.84 in 9.0 mi SE 17.3 mph 25.3 mph N/A   Overcast
8:53 AM 75.0 °F - 66.9 °F 76% 29.86 in 10.0 mi SE 19.6 mph 28.8 mph N/A   Overcast
9:43 AM 77.0 °F - 66.2 °F 69% 29.86 in 10.0 mi SSE 26.5 mph 34.5 mph N/A   Mostly Cloudy
9:53 AM 77.0 °F - 66.9 °F 71% 29.87 in 10.0 mi SE 27.6 mph 35.7 mph N/A   Mostly Cloudy
10:53 AM 79.0 °F - 66.0 °F 64% 29.87 in 10.0 mi SSE 29.9 mph 38.0 mph N/A   Overcast
11:53 AM 78.1 °F - 66.0 °F 66% 29.86 in 10.0 mi SE 31.1 mph 43.7 mph N/A   Scattered Clouds
12:53 PM 80.1 °F 82.3 °F 66.9 °F 64% 29.86 in 10.0 mi SE 32.2 mph 43.7 mph N/A   Mostly Cloudy
1:53 PM 80.1 °F 82.3 °F 66.9 °F 64% 29.83 in 10.0 mi SSE 28.8 mph 41.4 mph N/A   Mostly Cloudy
2:28 PM 78.8 °F - 66.2 °F 65% 29.81 in 10.0 mi SSE 32.2 mph 44.9 mph N/A   Scattered Clouds
3:41 PM 78.8 °F - 66.2 °F 65% 29.79 in 10.0 mi SSE 28.8 mph 41.4 mph N/A   Mostly Cloudy
3:53 PM 78.1 °F - 66.9 °F 68% 29.78 in 10.0 mi SSE 29.9 mph 42.6 mph N/A   Scattered Clouds
4:31 PM 77.0 °F - 66.2 °F 69% 29.78 in 10.0 mi SSE 25.3 mph 40.3 mph N/A   Mostly Cloudy
4:53 PM 77.0 °F - 66.9 °F 71% 29.79 in 10.0 mi SE 24.2 mph 34.5 mph N/A   Mostly Cloudy
6:53 PM 75.9 °F - 66.9 °F 74% 29.79 in 10.0 mi SSE 25.3 mph 33.4 mph N/A   Mostly Cloudy
7:53 PM 75.9 °F - 66.9 °F 74% 29.80 in 10.0 mi SE 25.3 mph 32.2 mph N/A   Mostly Cloudy
8:09 PM 75.2 °F - 66.2 °F 73% 29.80 in 10.0 mi SE 24.2 mph 29.9 mph N/A   Mostly Cloudy
8:53 PM 75.9 °F - 66.9 °F 74% 29.82 in 10.0 mi SSE 23.0 mph 31.1 mph N/A   Overcast
9:53 PM 75.9 °F - 66.9 °F 74% 29.81 in 10.0 mi SE 24.2 mph 36.8 mph N/A   Mostly Cloudy
10:53 PM 75.9 °F - 66.9 °F 74% 29.82 in 10.0 mi SE 23.0 mph 29.9 mph N/A   Mostly Cloudy
11:53 PM 75.9 °F - 68.0 °F 76% 29.83 in 10.0 mi SE 21.9 mph 31.1 mph N/A   Overcast